| time (UTC) | temp F | wind direction | speed MPH | gust MPH | rain 1hr in | rain 24hr in | rain mn in | humidity % | barometer mb |
| 20260903213051 | 68 | 215 | 2.0 | 5.0 | 0.00 | 0.00 | 0.00 | 84 | 1016.1 |
| 20260903211615 | 67 | 202 | 2.0 | 5.0 | 0.00 | 0.00 | 0.00 | 84 | 1016.2 |
| 20260903210055 | 67 | 189 | 2.0 | 5.0 | 0.00 | 0.00 | 0.00 | 84 | 1016.2 |
| 20260903204550 | 67 | 183 | 2.0 | 7.0 | 0.00 | 0.00 | 0.00 | 84 | 1016.2 |
| 20260903203050 | 67 | 209 | 3.0 | 7.0 | 0.00 | 0.00 | 0.00 | 84 | 1016.2 |
| 20260903201549 | 67 | 209 | 3.0 | 6.0 | 0.00 | 0.00 | 0.00 | 83 | 1016.2 |
| 20260903200048 | 67 | 209 | 3.0 | 7.0 | 0.00 | 0.00 | 0.00 | 82 | 1016.3 |
| 20260903194547 | 68 | 271 | 4.0 | 9.0 | 0.00 | 0.00 | 0.00 | 82 | 1016.1 |
| 20260903193046 | 68 | 233 | 3.0 | 6.0 | 0.00 | 0.00 | 0.00 | 81 | 1016.1 |
| 20260903191545 | 69 | 239 | 2.0 | 7.0 | 0.00 | 0.00 | 0.00 | 79 | 1016.1 |
| 20260903190045 | 69 | 262 | 3.0 | 6.0 | 0.00 | 0.00 | 0.00 | 78 | 1016.2 |
| 20260903184543 | 70 | 238 | 3.0 | 8.0 | 0.00 | 0.00 | 0.00 | 77 | 1016.3 |
| 20260903183043 | 70 | 219 | 3.0 | 11.0 | 0.00 | 0.00 | 0.00 | 76 | 1016.1 |
| 20260903181542 | 71 | 225 | 5.0 | 12.0 | 0.00 | 0.00 | 0.00 | 74 | 1016.1 |
| 20260903180041 | 71 | 248 | 5.0 | 13.0 | 0.00 | 0.00 | 0.00 | 73 | 1016.2 |
| 20260903174557 | 72 | 238 | 5.0 | 11.0 | 0.00 | 0.00 | 0.00 | 72 | 1016.0 |
| 20260903173041 | 72 | 243 | 6.0 | 16.0 | 0.00 | 0.00 | 0.00 | 72 | 1016.3 |
| 20260903171539 | 72 | 244 | 4.0 | 14.0 | 0.00 | 0.00 | 0.00 | 70 | 1016.0 |
| 20260903170103 | 73 | 245 | 9.0 | 17.0 | 0.00 | 0.00 | 0.00 | 69 | 1016.0 |
| 20260903164548 | 74 | 242 | 6.0 | 16.0 | 0.00 | 0.00 | 0.00 | 67 | 1016.1 |
| 20260903163038 | 75 | 232 | 7.0 | 15.0 | 0.00 | 0.00 | 0.00 | 65 | 1016.0 |
| 20260903161539 | 75 | 219 | 10.0 | 23.0 | 0.00 | 0.00 | 0.00 | 66 | 1015.8 |
| 20260903160037 | 75 | 238 | 9.0 | 20.0 | 0.00 | 0.00 | 0.00 | 66 | 1016.0 |
| 20260903154536 | 73 | 242 | 5.0 | 18.0 | 0.00 | 0.00 | 0.00 | 69 | 1016.0 |
| 20260903153043 | 72 | 221 | 8.0 | 17.0 | 0.00 | 0.00 | 0.00 | 70 | 1016.3 |
| 20260903151547 | 73 | 298 | 10.0 | 21.0 | 0.00 | 0.00 | 0.00 | 67 | 1016.1 |
| 20260903150035 | 74 | 253 | 10.0 | 18.0 | 0.00 | 0.00 | 0.00 | 66 | 1016.1 |
| 20260903144535 | 74 | 254 | 7.0 | 18.0 | 0.00 | 0.00 | 0.00 | 66 | 1016.1 |
| 20260903143033 | 73 | 255 | 5.0 | 23.0 | 0.00 | 0.00 | 0.00 | 67 | 1016.3 |
| 20260903141534 | 73 | 276 | 8.0 | 14.0 | 0.00 | 0.00 | 0.00 | 66 | 1016.3 |
| 20260903140032 | 75 | 252 | 8.0 | 17.0 | 0.00 | 0.00 | 0.00 | 64 | 1016.2 |
| 20260903134531 | 76 | 249 | 5.0 | 22.0 | 0.00 | 0.00 | 0.00 | 61 | 1016.1 |
| 20260903133130 | 77 | 246 | 11.0 | 20.0 | 0.00 | 0.00 | 0.00 | 60 | 1015.9 |
| 20260903131528 | 77 | 254 | 6.0 | 14.0 | 0.00 | 0.00 | 0.00 | 60 | 1015.7 |
| 20260903130026 | 77 | 217 | 7.0 | 13.0 | 0.00 | 0.00 | 0.00 | 62 | 1015.8 |
| 20260903124525 | 77 | 279 | 3.0 | 15.0 | 0.00 | 0.00 | 0.00 | 61 | 1015.9 |
| 20260903123025 | 77 | 268 | 7.0 | 15.0 | 0.00 | 0.00 | 0.00 | 60 | 1015.8 |
| 20260903121521 | 76 | 213 | 2.0 | 9.0 | 0.00 | 0.00 | 0.00 | 62 | 1015.7 |
| 20260903120025 | 75 | 224 | 10.0 | 17.0 | 0.00 | 0.00 | 0.00 | 63 | 1015.6 |
| 20260903114516 | 73 | 244 | 7.0 | 15.0 | 0.00 | 0.00 | 0.00 | 63 | 1015.8 |
| 20260903113012 | 73 | 245 | 6.0 | 18.0 | 0.00 | 0.00 | 0.00 | 65 | 1015.8 |
| 20260903111511 | 71 | 253 | 5.0 | 11.0 | 0.00 | 0.00 | 0.00 | 67 | 1015.8 |
| 20260903110010 | 70 | 238 | 5.0 | 14.0 | 0.00 | 0.00 | 0.00 | 67 | 1015.6 |
| 20260903104509 | 71 | 250 | 5.0 | 16.0 | 0.00 | 0.00 | 0.00 | 67 | 1015.7 |
| 20260903103010 | 72 | 252 | 7.0 | 20.0 | 0.00 | 0.00 | 0.00 | 64 | 1015.7 |
| 20260903101508 | 72 | 240 | 8.0 | 19.0 | 0.00 | 0.00 | 0.00 | 65 | 1015.7 |
| 20260903100007 | 72 | 261 | 11.0 | 21.0 | 0.00 | 0.00 | 0.00 | 63 | 1015.8 |
| 20260903094506 | 72 | 228 | 10.0 | 15.0 | 0.00 | 0.00 | 0.00 | 62 | 1015.7 |
| 20260903093002 | 71 | 242 | 5.0 | 15.0 | 0.00 | 0.00 | 0.00 | 64 | 1015.8 |
| 20260903091558 | 70 | 235 | 6.0 | 10.0 | 0.00 | 0.00 | 0.00 | 65 | 1016.0 |
| 20260903090057 | 69 | 183 | 3.0 | 9.0 | 0.00 | 0.00 | 0.00 | 65 | 1016.0 |
| 20260903084555 | 69 | 174 | 2.0 | 8.0 | 0.00 | 0.00 | 0.00 | 63 | 1016.0 |
| 20260903083053 | 68 | 180 | 4.0 | 7.0 | 0.00 | 0.00 | 0.00 | 64 | 1015.8 |
| 20260903081550 | 68 | 222 | 3.0 | 10.0 | 0.00 | 0.00 | 0.00 | 64 | 1016.0 |
| 20260903080047 | 67 | 175 | 4.0 | 8.0 | 0.00 | 0.00 | 0.00 | 65 | 1016.0 |
| 20260903074543 | 66 | 213 | 3.0 | 9.0 | 0.00 | 0.00 | 0.00 | 66 | 1016.0 |
| 20260903073046 | 65 | 196 | 3.0 | 7.0 | 0.00 | 0.00 | 0.00 | 68 | 1016.0 |
| 20260903070042 | 65 | 180 | 4.0 | 8.0 | 0.00 | 0.00 | 0.00 | 67 | 1016.2 |
| 20260903064534 | 64 | 201 | 3.0 | 6.0 | 0.00 | 0.00 | 0.00 | 67 | 1016.3 |
| 20260903063032 | 64 | 200 | 3.0 | 8.0 | 0.00 | 0.00 | 0.00 | 68 | 1016.3 |
| 20260903061541 | 63 | 190 | 3.0 | 7.0 | 0.00 | 0.00 | 0.00 | 68 | 1016.3 |
| 20260903060030 | 63 | 194 | 5.0 | 9.0 | 0.00 | 0.00 | 0.00 | 68 | 1016.2 |
| 20260903054522 | 63 | 194 | 3.0 | 7.0 | 0.00 | 0.00 | 0.00 | 69 | 1016.0 |
| 20260903053020 | 62 | 217 | 4.0 | 8.0 | 0.00 | 0.00 | 0.00 | 69 | 1016.2 |
| 20260903051517 | 62 | 195 | 5.0 | 8.0 | 0.00 | 0.00 | 0.00 | 69 | 1016.2 |
| 20260903050015 | 62 | 209 | 5.0 | 9.0 | 0.00 | 0.00 | 0.00 | 69 | 1016.3 |
| 20260903044512 | 62 | 183 | 4.0 | 8.0 | 0.00 | 0.00 | 0.00 | 70 | 1016.0 |
| 20260903043011 | 61 | 196 | 3.0 | 7.0 | 0.00 | 0.00 | 0.00 | 71 | 1015.9 |
| 20260903041509 | 61 | 199 | 3.0 | 6.0 | 0.00 | 0.00 | 0.00 | 72 | 1016.2 |
| 20260903040009 | 61 | 198 | 2.0 | 6.0 | 0.00 | 0.00 | 0.00 | 73 | 1016.3 |
| 20260903034509 | 61 | 198 | 3.0 | 6.0 | 0.00 | 0.00 | 0.00 | 73 | 1016.6 |
| 20260903033004 | 61 | 188 | 3.0 | 8.0 | 0.00 | 0.00 | 0.00 | 73 | 1016.6 |
| 20260903031503 | 61 | 205 | 3.0 | 7.0 | 0.00 | 0.00 | 0.00 | 73 | 1016.7 |
| 20260903030001 | 61 | 204 | 4.0 | 7.0 | 0.00 | 0.00 | 0.00 | 73 | 1016.8 |
| 20260903024600 | 61 | 205 | 4.0 | 7.0 | 0.00 | 0.00 | 0.00 | 74 | 1016.6 |
| 20260903023059 | 60 | 213 | 4.0 | 6.0 | 0.00 | 0.00 | 0.00 | 74 | 1016.9 |
| 20260903021557 | 60 | 210 | 2.0 | 4.0 | 0.00 | 0.00 | 0.00 | 74 | 1017.0 |
| 20260903020056 | 60 | 210 | 2.0 | 5.0 | 0.00 | 0.00 | 0.00 | 74 | 1017.2 |
| 20260903014603 | 60 | 211 | 2.0 | 6.0 | 0.00 | 0.00 | 0.00 | 75 | 1017.3 |
| 20260903013057 | 59 | 215 | 3.0 | 6.0 | 0.00 | 0.00 | 0.00 | 76 | 1017.1 |
| 20260903011606 | 59 | 217 | 3.0 | 5.0 | 0.00 | 0.00 | 0.00 | 76 | 1017.4 |
| 20260903010108 | 59 | 217 | 3.0 | 6.0 | 0.00 | 0.00 | 0.00 | 76 | 1017.5 |
| 20260903004549 | 59 | 218 | 3.0 | 5.0 | 0.00 | 0.00 | 0.00 | 76 | 1017.5 |
| 20260903003051 | 59 | 227 | 3.0 | 6.0 | 0.00 | 0.00 | 0.00 | 76 | 1017.5 |
| 20260903001547 | 59 | 234 | 2.0 | 4.0 | 0.00 | 0.00 | 0.00 | 77 | 1017.7 |
| 20260903000046 | 58 | 234 | 2.0 | 5.0 | 0.00 | 0.00 | 0.00 | 76 | 1017.8 |
| 20260902234543 | 59 | 234 | 2.0 | 4.0 | 0.00 | 0.00 | 0.00 | 75 | 1018.1 |
| 20260902233041 | 59 | 234 | 2.0 | 5.0 | 0.00 | 0.00 | 0.00 | 74 | 1018.2 |
| 20260902231551 | 59 | 235 | 2.0 | 7.0 | 0.00 | 0.00 | 0.00 | 74 | 1018.1 |
| 20260902230038 | 60 | 238 | 2.0 | 3.0 | 0.00 | 0.00 | 0.00 | 73 | 1018.0 |
| 20260902224550 | 60 | 238 | 1.0 | 4.0 | 0.00 | 0.00 | 0.00 | 71 | 1018.2 |
| 20260902223047 | 60 | 238 | 2.0 | 5.0 | 0.00 | 0.00 | 0.00 | 71 | 1018.2 |
| 20260902221543 | 61 | 238 | 3.0 | 5.0 | 0.00 | 0.00 | 0.00 | 71 | 1018.2 |
| 20260902220050 | 61 | 238 | 2.0 | 5.0 | 0.00 | 0.00 | 0.00 | 71 | 1018.3 |
| 20260902214531 | 60 | 239 | 3.0 | 5.0 | 0.00 | 0.00 | 0.00 | 72 | 1018.3 |